Location: Unspecified
(0.0000°N, 0.0000°E)
Time: 08:54:25
(UTC+00:00)

Explorer 11/Cluster Stage 4 - Pass Details

Date: 17 July 2020
Orbit: 467 x 1259 km, 28.8° (Epoch: 03 August)

Event Time Altitude Azimuth Distance (km) Brightness Sun altitude
Rises 13:58:49 0° 332° (NNW) 3,547 10.4 55.4°
Reaches altitude 10° 14:02:41 10° 356° (N) 2,777 9.9 54.6°
Maximum altitude 14:06:19 15° 28° (NNE) 2,584 9.5 53.9°
Drops below altitude 10° 14:10:13 10° 59° (ENE) 3,047 9.6 53.1°
Sets 14:14:48 0° 81° (E) 4,121 10.0 52.2°
